Regional Weather Roundup
Issued by NWS

Home | Current Version | Previous Version | Text Only | Print | Product List | Glossary On
Versions: 1 2 3 4 5 6 7 8 9 10 11 12 13 14 15 16 17 18 19 20 21 22 23 24 25 26 27 28 29 30 31 32 33 34 35 36 37 38 39 40 41 42 43 44 45 46 47 48 49 50
000
ASUS44 KFWD 180915
RWRTX
NORTH TEXAS HOURLY WEATHER ROUNDUP
NATIONAL WEATHER SERVICE FORT WORTH TX
400 AM CDT WED OCT 18 2017

NOTE: "FAIR" INDICATES FEW OR NO CLOUDS BELOW 12,000 FEET WITH NO
SIGNIFICANT WEATHER AND/OR OBSTRUCTIONS TO VISIBILITY.

TXZ118-119-181000-
DALLAS/FORT WORTH METROPLEX

CITY           SKY/WX    TMP DP  RH WIND       PRES   REMARKS
DFW AIRPORT    CLEAR     55  44  66 CALM      30.12S
DALLAS LOVE    CLEAR     57  43  59 SE7       30.13F
FTW MEACHAM    CLEAR     56  44  64 SE9       30.13S
DAL-EXECUTIVE  CLEAR     52  43  71 S5        30.13F
FTW-ALLIANCE   CLEAR     52  43  71 S3        30.12F
FTW-NAS-JRB    CLEAR     56  42  59 S7        30.14S
FTW-SPINKS     CLEAR     53  42  66 S6        30.14F
ARLINGTON      CLEAR     45  43  93 CALM      30.14S
GRAND PRAIRIE  CLEAR     55  43  62 S3        30.15S
ADDISON        CLEAR     58  44  58 SE9       30.15S
MESQUITE       CLEAR     45  44  96 SE5       30.15F
LANCASTER      CLEAR     46  39  78 CALM      30.16S
$$

TXZ091>094-102>105-117-120-121-131>134-181000-
NORTH CENTRAL TEXAS

CITY           SKY/WX    TMP DP  RH WIND       PRES   REMARKS
SHRMAN/DENISON CLEAR     56  41  56 SE8       30.14S
GAINESVILLE    CLEAR     48  43  82 S6        30.14F
BOWIE          CLEAR     47  43  84 CALM      30.11F
BRIDGEPORT     CLEAR     44  44  99 CALM      30.13F
DECATUR        CLEAR     57  42  57 SE9       30.11F
DENTON         CLEAR     49  44  83 S5        30.13S
MCKINNEY       CLEAR     48  44  86 CALM      30.14F
BONHAM         CLEAR     50  42  74 SE7       30.15F
GREENVILLE     PTCLDY    50  43  76 CALM      30.16F
ROCKWALL       CLEAR     54  42  66 SE7       30.15S
TERRELL        CLEAR     50  41  71 CALM      30.16F
WAXAHACHIE     CLEAR     52  43  71 SE3       30.16S
CLEBURNE       CLEAR     54  45  71 S8        30.15F
GRANBURY       CLEAR     47  42  81 CALM      30.14F
$$

TXZ083>090-098>101-113>116-127>130-139>142-154-155-181000-
WESTERN NORTH TEXAS

CITY           SKY/WX    TMP DP  RH WIND       PRES   REMARKS
WICHITA FALLS  CLEAR     49  43  80 S6        30.07F
WF-KICKAPOO    CLEAR     52  45  76 SE9       30.10S
VERNON         CLEAR     53  42  66 S7        30.07F
ABILENE        CLEAR     55  41  59 S8        30.09F
ABILENE-DYESS  CLEAR     60  42  51 SW3       30.08F
GRAHAM           N/A     55  43  66 CALM      30.09S
BRECKENRIDGE   CLEAR     57  43  59 S5        30.09S
CISCO          CLEAR     55  43  62 S7G14     30.12F
EASTLAND       CLEAR     48  42  78 S3        30.11F
RANGER         CLEAR     57  44  61 S10G16    30.11F
MINERAL WELLS  CLEAR     49  42  77 SE12      30.10F
STEPHENVILLE   CLEAR     50  42  74 S6        30.15F
COMANCHE       CLEAR     55  46  72 S7        30.13F
BROWNWOOD      CLEAR     46  39  76 CALM      30.14S
COLEMAN        CLEAR     51  41  68 CALM      30.12F
$$

TXZ143>147-156>162-174-175-181000-
CENTRAL TEXAS

CITY           SKY/WX    TMP DP  RH WIND       PRES   REMARKS
WACO           CLEAR     48  42  80 CALM      30.15S
WACO-MCGREGOR  CLEAR     47  38  71 S3        30.15F
HILLSBORO      CLEAR     54  41  61 SE3       30.15S
CORSICANA      CLEAR     51  45  79 S6        30.16F
MEXIA          CLEAR     50  43  77 CALM      30.15F
HEARNE         CLEAR     44  44 100 CALM      30.16F
CAMERON        CLEAR     48  45  87 CALM      30.15S
TEMPLE         CLEAR     50  42  74 SE3       30.16S
KILLEEN        CLEAR     57  46  67 S5        30.14F
KILLEEN-SKYLRK CLEAR     51  44  77 W5        30.15F
FORT HOOD      CLEAR     53  44  72 SW3       30.11F
GATESVILLE     CLEAR     50  43  76 CALM      30.16F
HAMILTON       CLEAR     51  43  76 S7        30.15F
LAMPASAS       CLEAR     52  46  77 CALM      30.14F
$$

TXZ095>097-106>112-122>126-135>138-148>153-164>167-181000-
EAST TEXAS

CITY           SKY/WX    TMP DP  RH WIND       PRES   REMARKS
PARIS          PTCLDY    49  42  77 S6        30.17F
SULPHUR SPRNGS CLEAR     51  43  73 SE7       30.18F
MOUNT PLEASANT CLEAR     46  43  90 CALM      30.19F
GILMER         CLEAR     45  42  90 CALM      30.17F THUNDER
MINEOLA        CLEAR     43  41  93 CALM      30.17F
TYLER          CLEAR     52  44  74 CALM      30.16F
LONGVIEW       CLEAR     45  44  97 CALM      30.16F
MARSHALL       CLEAR     42  40  92 CALM      30.19F
ATHENS         CLEAR     43  43 100 CALM      30.15F
PALESTINE      CLEAR     52  47  83 CALM      30.18S
JACKSONVILLE   CLEAR     55  44  67 CALM      30.18F
HENDERSON      CLEAR     42  41  96 CALM      30.18F
CENTER         SUNNY     48  46  94 CALM      30.19F
NACOGDOCHES    CLEAR     42  41  96 CALM      30.18F
LUFKIN         CLEAR     46  46 100 CALM      30.16F
$$

SUPPLEMENTAL OBSERVATIONS (NWS FORT WORTH AREA)

CITY           SKY/WX    TMP DP  RH WIND       PRES   REMARKS
DENISON DAM      N/A     52  43  71 E7          N/A
CADDO GRASSLND   N/A     54  43  66 S5          N/A
PAT MAYSE LAKE   N/A     46  41  81 CALM        N/A
GREENVILLE       N/A     52  43  71 SE3         N/A
CEDAR HILL       N/A     61  39  44 S5G14       N/A
LBJ GRASSLAND    N/A     57  41  54 SE9         N/A
POSSUM KINGDOM   N/A     57  43  58 SE7         N/A
GRANBURY         N/A     48  39  71 S1          N/A
COMANCHE         N/A     55  45  67 S6          N/A
MCGREGOR         N/A     48  39  71 SW2         N/A
TEMPLE           N/A     54  45  71 CALM        N/A
LAKE LIMESTONE   N/A     48  43  81 CALM        N/A
ATHENS           N/A     46  45  93 CALM        N/A
$$

SUPPLEMENTAL OBSERVATIONS (NWS NORMAN AREA)

CITY           SKY/WX    TMP DP  RH WIND       PRES   REMARKS
GOODLETT         N/A     52  37  55 S5        30.05F
ODELL            N/A     55  44  66 S13       30.07S
CROWELL          N/A     51  38  61 S6        30.07F
KNOX CITY        N/A     50  37  59 SE9       30.08F
SEYMOUR          N/A     54  43  64 SE9       30.08F
MILLERS CREEK    N/A     54  41  62 SE5         N/A
$$

SUPPLEMENTAL OBSERVATIONS (NWS SAN ANGELO AREA)

CITY           SKY/WX    TMP DP  RH WIND       PRES   REMARKS
WEINERT          N/A     49  40  69 S2        30.08F
HASKELL          N/A     55  39  54 S7        30.08S
THROCKMORTON     N/A     52  43  71 SE6       30.09F
STAMFORD         N/A     54  42  64 S3        30.08F
CLYDE            N/A     52  41  66 S8        30.11S
HAMBY            N/A     54  39  58 SE5         N/A
IVIE RESERVOIR   N/A     52  39  62 E7          N/A
COLORADO BEND    N/A     55  41  58 S5          N/A
$$

SUPPLEMENTAL OBSERVATIONS (NWS SHREVEPORT AREA)

CITY           SKY/WX    TMP DP  RH WIND       PRES   REMARKS
CLARKSVILLE      N/A     50  39  66 SE6         N/A
TEXARKANA        N/A     39  37  93 CALM        N/A
LINDEN           N/A     43  39  87 CALM        N/A
CADDO LAKE       N/A     36  34  93 CALM        N/A
GILMER           N/A     43  39  87 CALM        N/A
HENDERSON        N/A     43  41  93 CALM        N/A
LUFKIN           N/A     46  45  93 MISG        N/A
N SABINE NF      N/A     45  43  93 MISG        N/A
S SABINE NF      N/A     46  45  93 CALM        N/A
$$

SUPPLEMENTAL OBSERVATIONS ARE A COLLECTION OF AUTOMATED INSTRUMENTS
THAT ARE MAINTAINED BY A VARIETY OF FEDERAL AND STATE AGENCIES.
CERTAIN ELEMENTS...SUCH AS HUMIDITY VALUES AND SUSTAINED WIND
SPEEDS...MAY BE APPROXIMATED.





USA.gov is the U.S. government's official web portal to all federal, state and local government web resources and services.